Location: Newark
(42.8481°N, 0.4872°E)
Time: 16:47:31
(UTC+00:00)

A-11 Canister half - Pass Details

Date: 29 October 2020
Orbit: 1525 x 1683 km, 47.3° (Epoch: 22 November)

Event Time Altitude Azimuth Distance (km) Brightness Sun altitude
Rises 18:01:12 0° 285° (WNW) 4,728 12.9 -12.8°
Reaches altitude 10° 18:04:19 10° 288° (WNW) 3,729 12.1 -13.4°
Maximum altitude 18:13:43 74° 14° (NNE) 1,580 9.0 -15.1°
Enters shadow 18:20:31 21° 96° (E) 2,916 9.8 -16.4°
Drops below altitude 10° 18:23:01 10° 99° (E) 3,694 - -16.8°
Sets 18:26:05 0° 102° (ESE) 4,682 - -17.4°
